Back to catalog

STARLINK-1523

AliveCommunicationsVLEO
NORAD 46028·PAYLOAD·🇺🇸 United States

Launched Aug 7, 2020 from Cape Canaveral Space Force Station

Loading…

Next Passes (next 24 hours)

TLE

FreshSource: CelesTrak SupGP

Epoch: Sep 14, 2026, 13:55 UTC

1 46028C 20055B   26257.58034722  .00068930  00000+0  18410-2 0  2573
2 46028  53.1576 326.7361 0001092 339.9703 104.6100 15.37500990    15

Track STARLINK-1523 in real time with AllMySat

Download on the App Store